STARLINK-2536, 48310

Orbit data source: Space-Track

STARLINK-2536, 48310 is a payload satellite owned by SpaceX/Seattle (US) in LEO that was launched on Thu, 29 Apr 2021 UTC via an FALCON 9 launch vehicle from the Air Force Eastern Test Range (AFETR). Payload-class satellites include a variety of spacecraft equipped with specific instruments for various scientific and technological missions. These include communications satellites like Starlink; space stations such as the ISS; scientific satellites like the Hubble; Earth observation satellites from companies like Planet Labs, Umbra, and HawkEye 360; GPS; miniature CubeSats for education and research; and military/defense satellites.

Loading next visibility...
Identifier
48310, 2021-036AL
Orbit
LEO
Country
Flag of USUS
Related business
Manufacturer
SpaceX/Seattle
Mission
Operational Commercial Communications
Bus & Motor
STARLINK, Unknown motor
Mass
260 kg wet, ~248 kg dry
Launch date (UTC)
2021-04-29 (5 years ago)
Launch vehicle
FALCON 9
Launch site
Air Force Eastern Test Range (AFETR)
Object type
Payload
Rocket body
Debris
Shape & HBR
Box + 1 Pan, 10.1 m
Radar Cross Section
13.562 m², Large (>1 m²)

Expand to show TLE details & history
Last TLE update: 4 hours ago

TLE from 4 hours ago
0 STARLINK-2536
1 48310U 21036AL  26095.62040027 -.00003960  00000-0 -12502-3 0  9994
2 48310  53.1591 326.0644 0001238  87.9762 272.1381 15.29343563272309
Epoch: 2026-04-05T14:53Z
TLE epoch observation values (Epoch: 2026-04-05T14:53:22.583Z)
Latitude
0.00006°
Longitude
-91.20286°
Altitude
478.641 km
Speed
7.628 km/s
True Right ascension
21h 44m 15s
True Declination
0° 00' 00"
Sunlit
Object was in daylight at epoch
Visualization orbit readout
Latitude
Unknown
Longitude
Unknown
Altitude
Unknown
Speed
Unknown
Apparent Right ascension
Unknown
Apparent Declination
Unknown
Sunlit
N/A
Visualization observer readout
Local Sidereal Time
01:03:42
Azimuth
Unknown
Elevation
Unknown
Doppler factor
Unknown
Orbital elements
Apogee altitude
478.879 km
Perigee altitude
477.181 km
Semi-major axis
6,856.167 km
Eccentricity
0.00012
Inclination
53.1591°
RAAN
326.0644°
Arg. of periapsis
87.9762°
True anomaly
272.12392°
Mean anomaly
272.1381°
Eccentric anomaly
272.13101°
Mean motion
3.82315 °/min
Orbital period
94.16 mins
BSTAR
-0.00012502
Loading maneuver chart data...
Computing Atmospheric mass density...
Loading historical data...
Loading historical data...
Loading historical data...
Loading historical data...
Loading historical data...
Loading historical data...
Loading historical data...

Documentation

Showing up to 5 results
|